HST 1 20580U 90037B 25030.80655364 .00009489 00000-0 38625-3 0 9998 2 20580 28.4676 254.5411 0002714 15.0254 345.0421 15.22758261711707 ISS (ZARYA) 1 25544U 98067A 25030.94616898 .00017245 00000-0 30159-3 0 9991 2 25544 51.6392 266.7922 0002197 150.6796 37.3757 15.50733764493879 CXO 1 25867U 99040B 25031.93036384 .00000888 00000-0 00000-0 0 9991 2 25867 46.3828 136.9645 8617502 306.5684 1.0152 0.37801687 15438